Location: Unspecified
(0.0000°N, 0.0000°E)
Time: 09:13:46
(UTC+00:00)

Courier 1B - All Passes

Search period start: 21 December 2014 00:00
Search period end: 31 December 2014 00:00
Orbit: 963 x 1209 km, 28.3° (Epoch: 19 December)

Date Brightness Start Highest point End Pass type
(mag) Time Alt. Az. Time Alt. Az. Time Alt. Az.
21 Dec - 03:55:22 10° SSW 03:59:53 18° SSE 04:04:14 10° ESE visible
21 Dec - 05:47:45 10° SW 05:54:24 60° SSE 06:00:47 10° ENE daylight
21 Dec - 07:42:31 10° W 07:48:26 36° NNW 07:54:17 10° NE daylight
21 Dec - 09:42:29 10° NNW 09:43:10 10° NNW 09:43:51 10° NNW daylight
21 Dec - 15:27:32 10° NNW 15:31:59 17° NNE 15:36:34 10° ENE daylight
21 Dec - 17:19:26 10° NW 17:26:42 54° NNE 17:34:18 10° ESE daylight
21 Dec - 19:13:47 10° WNW 19:21:10 49° SSW 19:28:42 10° SE visible
21 Dec - 21:11:34 10° WSW 21:16:13 17° SSW 21:20:52 10° SSE visible
22 Dec - 03:02:26 10° S 03:05:47 14° SSE 03:09:02 10° SE visible
22 Dec - 04:54:08 10° SW 05:00:38 43° SSE 05:06:49 10° E visible
22 Dec - 06:48:17 10° WSW 06:54:43 51° NNW 07:00:57 10° NE daylight
22 Dec - 08:45:50 10° NW 08:49:08 14° NNW 08:52:26 10° N daylight
22 Dec - 14:35:16 10° N 14:37:51 12° NNE 14:40:29 10° NE daylight
22 Dec - 16:26:01 10° NW 16:32:46 39° NNE 16:39:50 10° E daylight
22 Dec - 18:19:40 10° WNW 18:27:10 66° SSW 18:34:58 10° SE visible
22 Dec - 20:16:16 10° WSW 20:22:00 22° SSW 20:27:46 10° SSE visible
23 Dec - 02:10:19 10° S 02:11:34 10° SSE 02:12:48 10° SSE visible
23 Dec - 04:00:38 10° SSW 04:06:47 32° SSE 04:12:38 10° E visible
23 Dec - 05:54:13 10° WSW 06:01:00 74° NNW 06:07:29 10° NE daylight
23 Dec - 07:50:37 10° WNW 07:55:13 20° NNW 07:59:46 10° NNE daylight
23 Dec - 15:32:48 10° NNW 15:38:49 29° NNE 15:45:07 10° E daylight
23 Dec - 17:25:47 10° WNW 17:33:13 88° SSW 17:41:03 10° ESE daylight
23 Dec - 19:21:25 10° W 19:27:51 29° SSW 19:34:26 10° SSE visible
23 Dec - 21:23:08 10° SSW 21:23:29 10° SSW 21:23:49 10° SSW visible
24 Dec - 03:07:14 10° SSW 03:12:50 24° SSE 03:18:11 10° ESE visible
24 Dec - 05:00:17 10° WSW 05:07:16 80° SSE 05:13:52 10° ENE visible
24 Dec - 06:55:49 10° W 07:01:22 28° NNW 07:06:48 10° NNE daylight
24 Dec - 14:39:49 10° NNW 14:44:50 21° NNE 14:50:04 10° ENE daylight
24 Dec - 16:32:06 10° NW 16:39:18 69° NNE 16:46:57 10° ESE daylight
24 Dec - 18:26:54 10° W 18:33:46 38° SSW 18:40:55 10° SE visible
24 Dec - 20:25:38 10° SW 20:29:05 13° SSW 20:32:33 10° S visible
25 Dec - 02:13:57 10° SSW 02:18:46 18° SSE 02:23:24 10° ESE visible
25 Dec - 04:06:29 10° SW 04:13:30 58° SSE 04:20:04 10° ENE visible
25 Dec - 06:01:18 10° W 06:07:36 39° NNW 06:13:38 10° NE daylight
25 Dec - 08:00:37 10° NW 08:02:14 11° NNW 08:03:50 10° N daylight
25 Dec - 13:47:12 10° N 13:50:49 15° NNE 13:54:32 10° ENE daylight
25 Dec - 15:38:37 10° NW 15:45:25 50° NNE 15:52:39 10° ESE daylight
25 Dec - 17:32:40 10° WNW 17:39:46 51° SSW 17:47:15 10° SE daylight
25 Dec - 19:30:01 10° WSW 19:34:47 17° SSW 19:39:39 10° SSE visible
26 Dec - 01:20:54 10° S 01:24:36 14° SSE 01:28:12 10° SE visible
26 Dec - 03:12:48 10° SW 03:19:38 42° SSE 03:26:04 10° E visible
26 Dec - 05:06:59 10° WSW 05:13:51 56° NNW 05:20:19 10° NE visible
26 Dec - 07:04:26 10° WNW 07:08:13 16° NNW 07:11:56 10° N daylight
26 Dec - 12:56:05 10° NNE 12:56:43 10° NNE 12:57:22 10° NNE daylight
26 Dec - 14:45:20 10° NW 14:51:34 36° NNE 14:58:09 10° E daylight
26 Dec - 16:38:41 10° WNW 16:45:50 69° SSW 16:53:26 10° SE daylight
26 Dec - 18:34:56 10° WSW 18:40:35 23° SSW 18:46:25 10° SSE visible
27 Dec - 00:28:26 10° S 00:30:17 11° SSE 00:32:08 10° SSE night (unlit)
27 Dec - 02:19:13 10° SSW 02:25:42 31° SSE 02:31:50 10° E visible
27 Dec - 04:12:51 10° WSW 04:20:05 79° NNW 04:26:50 10° NE visible
27 Dec - 06:09:13 10° WNW 06:14:18 22° NNW 06:19:14 10° NNE daylight
27 Dec - 13:52:14 10° NNW 13:57:41 25° NNE 14:03:23 10° E daylight
27 Dec - 15:44:56 10° WNW 15:51:57 88° NNE 15:59:29 10° ESE daylight
27 Dec - 17:40:15 10° W 17:46:29 29° SSW 17:52:59 10° SSE daylight
27 Dec - 19:40:48 10° SSW 19:42:03 10° SSW 19:43:17 10° S visible
28 Dec - 01:25:46 10° SSW 01:31:39 24° SSE 01:37:18 10° ESE visible
28 Dec - 03:18:52 10° SW 03:26:16 76° SSE 03:33:10 10° ENE visible
28 Dec - 05:14:23 10° W 05:20:27 31° NNW 05:26:14 10° NNE visible
28 Dec - 12:59:24 10° NNW 13:03:46 18° NNE 13:08:17 10° ENE daylight
28 Dec - 14:51:22 10° NW 14:58:08 64° NNE 15:05:22 10° ESE daylight
28 Dec - 16:45:53 10° W 16:52:28 39° SSW 16:59:26 10° SE daylight
28 Dec - 18:44:14 10° SW 18:47:41 13° SSW 18:51:12 10° S visible
29 Dec - 00:32:27 10° SSW 00:37:31 19° SSE 00:42:25 10° ESE night (unlit)
29 Dec - 02:25:02 10° SW 02:32:24 56° SSE 02:39:18 10° ENE visible
29 Dec - 04:19:49 10° W 04:26:38 43° NNW 04:33:03 10° NE visible
29 Dec - 06:18:35 10° NW 06:21:15 12° NNW 06:23:52 10° N daylight
29 Dec - 12:07:02 10° N 12:09:47 13° NNE 12:12:34 10° NE daylight
29 Dec - 13:57:59 10° NW 14:04:20 45° NNE 14:11:04 10° E daylight
29 Dec - 15:51:47 10° WNW 15:58:32 53° SSW 16:05:45 10° SE daylight
29 Dec - 17:48:49 10° WSW 17:53:26 17° SSW 17:58:11 10° SSE daylight
29 Dec - 23:39:23 10° S 23:43:16 14° SSE 23:47:04 10° SE night (unlit)
30 Dec - 01:31:19 10° SW 01:38:27 41° SSE 01:45:13 10° E night (unlit)
30 Dec - 03:25:29 10° WSW 03:32:49 61° NNW 03:39:40 10° NE visible
30 Dec - 05:22:45 10° WNW 05:27:14 18° NNW 05:31:35 10° NNE visible
30 Dec - 13:04:46 10° NNW 13:10:33 32° NNE 13:16:35 10° E daylight
30 Dec - 14:57:55 10° WNW 15:04:41 73° SSW 15:11:56 10° SE daylight
30 Dec - 16:53:54 10° WSW 16:59:17 23° SSW 17:04:55 10° SSE daylight
30 Dec - 22:46:57 10° S 22:48:54 11° SSE 22:50:51 10° SSE visible
